DW4219 Weather Reports


Display with metric or nautical units.
time (UTC)temp
F
wind
direction
speed
MPH
gust
MPH
rain 1hr
in
rain 24hr
in
rain mn
in
humidity
%
barometer
mb
20260903050013 70 226 7.0 14.0 0.00 0.00 0.00 13 1008.1
20260903044512 70 198 7.0 12.0 0.00 0.00 0.00 13 1008.3
20260903043011 70 248 5.0 11.0 0.00 0.00 0.00 13 1008.4
20260903041513 69 167 4.0 9.0 0.00 0.00 0.00 15 1008.2
20260903040010 69 233 3.0 8.0 0.00 0.00 0.00 16 1008.0
20260903034509 69 221 2.0 6.0 0.00 0.00 0.00 15 1007.9
20260903033008 71 223 4.0 8.0 0.00 0.00 0.00 14 1007.7
20260903031507 71 161 5.0 10.0 0.00 0.00 0.00 14 1007.6
20260903030018 72 206 8.0 16.0 0.00 0.00 0.00 14 1007.5
20260903024507 73 207 7.0 16.0 0.00 0.00 0.00 14 1007.2
20260903023010 73 219 9.0 17.0 0.00 0.00 0.00 13 1007.1
20260903021509 73 200 8.0 16.0 0.00 0.00 0.00 13 1007.1
20260903020007 74 192 8.0 21.0 0.00 0.00 0.00 13 1007.0
20260903014605 75 219 9.0 20.0 0.00 0.00 0.00 12 1007.2
20260903013004 77 222 12.0 24.0 0.00 0.00 0.00 12 1007.2
20260903011506 77 220 9.0 20.0 0.00 0.00 0.00 12 1007.3
20260903010002 78 220 13.0 21.0 0.00 0.00 0.00 11 1007.2
20260903004501 78 212 9.0 25.0 0.00 0.00 0.00 11 1007.1
20260903003114 78 199 13.0 25.0 0.00 0.00 0.00 10 1007.3
20260903001604 78 219 16.0 29.0 0.00 0.00 0.00 11 1007.2
20260903000107 78 214 14.0 29.0 0.00 0.00 0.00 10 1007.2
20260902234600 78 205 17.0 31.0 0.00 0.00 0.00 10 1007.3
20260902233058 78 228 16.0 32.0 0.00 0.00 0.00 10 1007.4
20260902231557 78 211 16.0 32.0 0.00 0.00 0.00 10 1007.3
20260902230056 78 192 17.0 29.0 0.00 0.00 0.00 10 1007.3
20260902224557 79 205 19.0 28.0 0.00 0.00 0.00 10 1007.5
20260902223057 79 203 15.0 27.0 0.00 0.00 0.00 10 1007.4
20260902221610 79 240 15.0 30.0 0.00 0.00 0.00 10 1007.5
20260902220055 80 200 11.0 22.0 0.00 0.00 0.00 11 1007.8
20260902214548 79 188 15.0 34.0 0.00 0.00 0.00 11 1007.8
20260902213045 79 230 16.0 30.0 0.00 0.00 0.00 10 1008.2
20260902211547 78 203 16.0 31.0 0.00 0.00 0.00 12 1008.0
20260902210052 78 204 16.0 34.0 0.00 0.00 0.00 12 1008.3
20260902204545 78 188 19.0 30.0 0.00 0.00 0.00 12 1008.3
20260902203043 77 228 21.0 37.0 0.00 0.00 0.00 12 1008.3
20260902201543 77 226 20.0 35.0 0.00 0.00 0.00 12 1008.4
20260902200038 77 205 21.0 33.0 0.00 0.00 0.00 13 1008.5
20260902194539 77 169 20.0 31.0 0.00 0.00 0.00 14 1008.7
20260902193034 77 200 16.0 36.0 0.00 0.00 0.00 15 1008.8
20260902191532 77 213 13.0 29.0 0.00 0.00 0.00 14 1009.1
20260902190032 77 190 15.0 30.0 0.00 0.00 0.00 19 1009.1
20260902184529 76 167 19.0 33.0 0.00 0.00 0.00 17 1009.2
20260902183036 76 157 15.0 31.0 0.00 0.00 0.00 20 1009.3
20260902181524 75 176 12.0 31.0 0.00 0.00 0.00 22 1009.5
20260902180021 74 174 14.0 24.0 0.00 0.00 0.00 22 1009.8
20260902174519 74 212 13.0 26.0 0.00 0.00 0.00 26 1010.1
20260902173017 73 172 14.0 27.0 0.00 0.00 0.00 25 1010.2
20260902171616 73 198 14.0 26.0 0.00 0.00 0.00 28 1010.3
20260902170014 72 182 12.0 26.0 0.00 0.00 0.00 28 1010.1
20260902164517 72 224 17.0 28.0 0.00 0.00 0.00 28 1010.0
20260902163011 71 217 18.0 27.0 0.00 0.00 0.00 30 1010.0
20260902161511 71 212 16.0 27.0 0.00 0.00 0.00 30 1010.1
20260902160010 71 208 12.0 30.0 0.00 0.00 0.00 33 1010.0
20260902154507 71 173 13.0 24.0 0.00 0.00 0.00 33 1009.9
20260902153005 70 172 13.0 28.0 0.00 0.00 0.00 34 1009.9
20260902151504 70 216 10.0 26.0 0.00 0.00 0.00 34 1010.1
20260902150004 70 217 10.0 19.0 0.00 0.00 0.00 31 1010.1
20260902144502 69 196 10.0 20.0 0.00 0.00 0.00 29 1010.1
20260902143002 69 199 6.0 12.0 0.00 0.00 0.00 28 1010.1
20260902141505 68 162 5.0 16.0 0.00 0.00 0.00 29 1010.1
20260902140002 67 231 8.0 17.0 0.00 0.00 0.00 28 1010.0
20260902134620 67 203 6.0 14.0 0.00 0.00 0.00 28 1009.7
20260902133104 65 226 10.0 18.0 0.00 0.00 0.00 28 1009.5
20260902131558 62 224 2.0 6.0 0.00 0.00 0.00 29 1009.9
20260902130057 58 55 0.0 3.0 0.00 0.00 0.00 39 1009.8
20260902124602 59 39 1.0 3.0 0.00 0.00 0.00 37 1009.7
20260902123050 65 214 3.0 8.0 0.00 0.00 0.00 28 1009.7
20260902121551 64 192 4.0 8.0 0.00 0.00 0.00 27 1009.7
20260902120046 65 204 4.0 11.0 0.00 0.00 0.00 28 1009.7
20260902114545 65 226 4.0 12.0 0.00 0.00 0.00 28 1009.7
20260902113045 66 235 4.0 11.0 0.00 0.00 0.00 30 1009.7
20260902111541 66 208 6.0 13.0 0.00 0.00 0.00 30 1009.6
20260902110039 66 200 7.0 13.0 0.00 0.00 0.00 31 1009.6
20260902104539 67 223 7.0 14.0 0.00 0.00 0.00 33 1009.8
20260902103043 67 219 8.0 14.0 0.00 0.00 0.00 34 1009.8
20260902101542 67 211 10.0 19.0 0.00 0.00 0.00 35 1009.8
20260902100030 68 226 7.0 15.0 0.00 0.00 0.00 35 1009.9
20260902094530 68 231 6.0 15.0 0.00 0.00 0.00 37 1009.9
20260902093026 68 202 10.0 16.0 0.00 0.00 0.00 38 1010.1
20260902091522 68 224 7.0 14.0 0.00 0.00 0.00 36 1010.1
20260902090019 68 219 8.0 16.0 0.00 0.00 0.00 35 1010.2
20260902084525 69 205 9.0 17.0 0.00 0.00 0.00 35 1010.3
20260902083014 69 192 10.0 19.0 0.00 0.00 0.00 35 1010.3
20260902081514 69 188 10.0 18.0 0.00 0.00 0.00 34 1010.3
20260902080010 70 205 11.0 19.0 0.00 0.00 0.00 35 1010.4
20260902074508 69 209 8.0 17.0 0.00 0.00 0.00 38 1010.4
20260902073007 69 211 10.0 16.0 0.00 0.00 0.00 42 1010.3
20260902071505 69 211 8.0 15.0 0.00 0.00 0.00 42 1010.3
20260902070002 70 224 6.0 13.0 0.00 0.00 0.00 41 1010.3
20260902064619 70 182 8.0 15.0 0.00 0.00 0.00 40 1010.4
20260902063059 70 217 6.0 15.0 0.00 0.00 0.00 40 1010.4
20260902061554 69 217 4.0 7.0 0.00 0.00 0.00 37 1010.5
20260902054550 70 146 5.0 10.0 0.00 0.00 0.00 35 1010.7
20260902053052 70 174 4.0 8.0 0.00 0.00 0.00 37 1010.8
20260902051549 70 160 5.0 10.0 0.00 0.00 0.00 34 1010.9